Location: Capvern
(43.1036°N, 0.3160°E)
Time: 06:02:00
(UTC+00:00)

Cosmos 489 Rocket - Pass Details

Date: 31 May 2022
Orbit: 952 x 983 km, 74.0° (Epoch: 03 July)

Event Time Altitude Azimuth Distance (km) Brightness Sun altitude
Rises 01:53:03 0° 346° (NNW) 3,646 8.2 -19.7°
Reaches altitude 10° 01:55:54 10° 357° (N) 2,700 7.6 -19.4°
Maximum altitude 02:01:23 31° 58° (ENE) 1,625 6.3 -18.9°
Drops below altitude 10° 02:06:51 10° 120° (ESE) 2,705 6.8 -18.4°
Sets 02:09:42 0° 130° (SE) 3,653 7.4 -18.1°
